sat.trackr.live / text

‹ back to catalog

HAWK-5C

NORAD 52754 · 2022-057Y

PAYLOAD ACTIVE UNKNOWN

§ Identity

Operator
Country
US
Launch date
2022-05-25
Launch site
AFETR
Launch vehicle
Mass (kg)
RCS (m²)

Purposes: tech_demo

External: N2YO · Heavens-Above · Gunter

§ Orbital elements

Epoch: 2026-09-19T21:28:53.913216Z

Period
92.64 min
Inclination
97.6685°
Eccentricity
0.0004617
Mean motion
15.54434135 rev/d
Perigee alt
400.7 km
Apogee alt
406.9 km
Semi-major
6,781.9 km
B*
2.2592e-4
RAAN
68.9565°
Arg perigee
86.4388°
Mean anomaly
273.7393°
Rev number
24,104

§ Raw data

HAWK-5C1 52754U 22057Y   26262.89506844  .00014743  00000+0  22592-3 0  99922 52754  97.6685  68.9565 0004617  86.4388 273.7393 15.54434135241040

JSON: /api/v1/satellites/52754 · /tle

For live sub-satellite position, see the globe view (requires WebGL).

§ Visibility from observer

Set your observer location to see the next 7 days of passes ≥ 10°. The values pass through the URL so the page stays shareable.

No JS? Fill the form by hand. The geolocation button needs JavaScript.